DB0BIN Weather Reports


time (UTC)temp
C
wind
direction
speed
KPH
gust
KPH
rain 1hr
cm
rain 24hr
cm
rain mn
cm
humidity
%
barometer
mb
20260506175005 9 180 0.0 0.0 0.00 0.84 0.00 1007.0
20260506174505 9 180 0.0 0.0 0.00 0.81 0.00 1006.9
20260506174005 9 180 0.0 0.0 0.00 0.81 0.00 1006.9
20260506173505 9 180 0.0 0.0 0.00 0.81 0.00 1006.9
20260506173005 9 180 0.0 0.0 0.00 0.81 0.00 1006.7
20260506172505 9 180 0.0 0.0 0.00 0.81 0.00 1006.7
20260506172005 9 180 0.0 0.0 0.00 0.81 0.00 1006.7
20260506171505 9 180 0.0 0.0 0.00 0.81 0.00 1006.7
20260506171005 9 180 0.0 0.0 0.00 0.81 0.00 1006.7
20260506170505 9 180 0.0 0.0 0.00 0.81 0.00 1006.6
20260506170005 9 180 0.0 0.0 0.00 0.81 0.00 1006.6
20260506165505 9 180 0.0 0.0 0.00 0.81 0.00 1006.6
20260506165005 9 180 0.0 0.0 0.00 0.81 0.00 1006.6
20260506164505 9 180 0.0 0.0 0.00 0.81 0.00 1006.6
20260506164005 10 180 0.0 0.0 0.00 0.81 0.00 1006.6
20260506163505 10 180 0.0 0.0 0.00 0.81 0.00 1006.7
20260506163005 10 180 0.0 0.0 0.00 0.81 0.00 1006.6
20260506162505 10 180 0.0 0.0 0.00 0.81 0.00 1006.7
20260506162005 10 180 0.0 0.0 0.00 0.81 0.00 1006.7
20260506161505 10 180 0.0 0.0 0.00 0.81 0.00 1006.7
20260506161005 10 180 0.0 0.0 0.00 0.81 0.00 1006.7
20260506160505 10 180 0.0 0.0 0.00 0.81 0.00 1006.6
20260506160005 10 180 0.0 0.0 0.00 0.81 0.00 1006.7
20260506155505 10 180 0.0 0.0 0.00 0.81 0.00 1006.7
20260506155005 10 180 0.0 0.0 0.00 0.81 0.00 1006.6
20260506154505 11 180 0.0 0.0 0.00 0.81 0.00 1006.6
20260506154005 11 180 0.0 0.0 0.00 0.81 0.00 1006.5
20260506153505 11 180 0.0 0.0 0.00 0.79 0.00 1006.2
20260506153005 11 180 0.0 0.0 0.00 0.71 0.00 1006.2
20260506152505 11 180 0.0 0.0 0.00 0.61 0.00 1006.2
20260506152005 11 180 0.0 0.0 0.00 0.58 0.00 1006.2
20260506151505 11 180 0.0 0.0 0.00 0.53 0.00 1006.2
20260506151005 11 180 0.0 0.0 0.00 0.51 0.00 1006.1
20260506150505 11 180 0.0 0.0 0.00 0.48 0.00 1006.1
20260506150005 11 180 0.0 0.0 0.00 0.46 0.00 1006.0
20260506145505 11 180 0.0 0.0 0.00 0.43 0.00 1006.0
20260506145005 11 180 0.0 0.0 0.00 0.43 0.00 1006.0
20260506144505 11 180 0.0 0.0 0.00 0.41 0.00 1005.9
20260506144005 12 180 0.0 0.0 0.00 0.41 0.00 1005.9
20260506143505 11 180 0.0 0.0 0.00 0.41 0.00 1005.9
20260506143005 11 180 0.0 0.0 0.00 0.41 0.00 1005.7
20260506142505 12 180 0.0 0.0 0.00 0.41 0.00 1005.7
20260506142005 12 180 0.0 0.0 0.00 0.41 0.00 1005.7
20260506141505 12 180 0.0 0.0 0.00 0.41 0.00 1005.7
20260506141005 11 180 0.0 0.0 0.00 0.41 0.00 1005.7
20260506140505 12 180 0.0 0.0 0.00 0.41 0.00 1005.6
20260506140005 12 180 0.0 0.0 0.00 0.41 0.00 1005.5
20260506135505 12 180 0.0 0.0 0.00 0.41 0.00 1005.5
20260506135005 12 180 0.0 0.0 0.00 0.41 0.00 1005.6
20260506134505 12 180 0.0 0.0 0.00 0.41 0.00 1005.6
20260506134005 12 180 0.0 0.0 0.00 0.41 0.00 1005.5
20260506133505 12 180 0.0 0.0 0.00 0.41 0.00 1005.5
20260506133005 12 180 0.0 0.0 0.00 0.41 0.00 1005.4
20260506132505 12 180 0.0 0.0 0.00 0.41 0.00 1005.4
20260506132005 12 180 0.0 0.0 0.00 0.41 0.00 1005.4
20260506131505 12 180 0.0 0.0 0.00 0.41 0.00 1005.4
20260506131005 11 180 0.0 0.0 0.00 0.41 0.00 1005.4
20260506130505 12 180 0.0 0.0 0.00 0.41 0.00 1005.2
20260506130005 11 180 0.0 0.0 0.00 0.41 0.00 1005.2
20260506125505 11 180 0.0 0.0 0.00 0.41 0.00 1005.4
20260506125005 11 180 0.0 0.0 0.00 0.41 0.00 1005.4
20260506124505 11 180 0.0 0.0 0.00 0.41 0.00 1005.2
20260506124005 11 180 0.0 0.0 0.00 0.41 0.00 1005.2
20260506123505 11 180 0.0 0.0 0.00 0.38 0.00 1005.2
20260506123005 11 180 0.0 0.0 0.00 0.38 0.00 1005.1
20260506122505 11 180 0.0 0.0 0.00 0.30 0.00 1005.1
20260506122005 11 180 0.0 0.0 0.00 0.30 0.00 1005.2
20260506121505 11 180 0.0 0.0 0.00 0.30 0.00 1005.1
20260506121005 11 180 0.0 0.0 0.00 0.30 0.00 1004.7
20260506120505 11 180 0.0 0.0 0.00 0.30 0.00 1004.7
20260506120005 11 180 0.0 0.0 0.00 0.30 0.00 1004.7
20260506115505 11 180 0.0 0.0 0.00 0.30 0.00 1004.6
20260506115005 11 180 0.0 0.0 0.00 0.28 0.00 1004.6
20260506114505 11 180 0.0 0.0 0.00 0.25 0.00 1004.7
20260506114005 11 180 0.0 0.0 0.00 0.23 0.00 1004.7
20260506113505 12 180 0.0 0.0 0.00 0.20 0.00 1004.7
20260506113005 13 180 0.0 0.0 0.00 0.00 0.00 1004.6
20260506112505 13 180 0.0 0.0 0.00 0.00 0.00 1004.6
20260506112005 15 180 0.0 0.0 0.00 0.00 0.00 1004.5
20260506111505 15 180 0.0 0.0 0.00 0.00 0.00 1004.6
20260506111005 15 180 0.0 0.0 0.00 0.00 0.00 1004.5
20260506110505 15 180 0.0 0.0 0.00 0.00 0.00 1004.5
20260506110005 15 180 0.0 0.0 0.00 0.00 0.00 1004.5
20260506105505 15 180 0.0 0.0 0.00 0.00 0.00 1004.5
20260506105005 15 180 0.0 0.0 0.00 0.00 0.00 1004.6
20260506104505 15 180 0.0 0.0 0.00 0.00 0.00 1004.6
20260506104005 15 180 0.0 0.0 0.00 0.00 0.00 1004.7
20260506103505 15 180 0.0 0.0 0.00 0.00 0.00 1004.7
20260506103005 15 180 0.0 0.0 0.00 0.00 0.00 1004.7
20260506102505 16 180 0.0 0.0 0.00 0.00 0.00 1004.7
20260506102005 16 180 0.0 0.0 0.00 0.00 0.00 1004.7
20260506101505 15 180 0.0 0.0 0.00 0.00 0.00 1004.7
20260506101005 15 180 0.0 0.0 0.00 0.00 0.00 1004.7
20260506100505 15 180 0.0 0.0 0.00 0.00 0.00 1004.7
20260506100005 15 180 0.0 0.0 0.00 0.00 0.00 1004.7
20260506095505 15 180 0.0 0.0 0.00 0.00 0.00 1005.0
20260506095005 15 180 0.0 0.0 0.00 0.89 0.00 1005.0
20260506094505 16 180 0.0 0.0 0.00 0.89 0.00 1005.0
20260506094005 16 180 0.0 0.0 0.00 0.89 0.00 1005.0
20260506093505 16 180 0.0 0.0 0.00 0.89 0.00 1005.0
20260506093005 16 180 0.0 0.0 0.00 0.89 0.00 1005.0
20260506092505 16 180 0.0 0.0 0.00 0.89 0.00 1005.0
20260506092005 16 180 0.0 0.0 0.00 0.89 0.00 1005.0
20260506091505 16 180 0.0 0.0 0.00 0.89 0.00 1004.7
20260506091005 15 180 0.0 0.0 0.00 0.89 0.00 1005.0
20260506090505 15 180 0.0 0.0 0.00 0.89 0.00 1004.7
20260506090005 15 180 0.0 0.0 0.00 0.89 0.00 1004.7
20260506085505 15 180 0.0 0.0 0.00 0.89 0.00 1005.0
20260506085005 15 180 0.0 0.0 0.00 0.89 0.00 1004.7
20260506084505 15 180 0.0 0.0 0.00 0.89 0.00 1004.7
20260506084005 14 180 0.0 0.0 0.00 0.89 0.00 1004.7
20260506083505 14 180 0.0 0.0 0.00 0.89 0.00 1004.7
20260506083005 13 180 0.0 0.0 0.00 0.89 0.00 1004.7
20260506082505 13 180 0.0 0.0 0.00 0.89 0.00 1004.7
20260506082005 13 180 0.0 0.0 0.00 0.89 0.00 1004.7
20260506081505 13 180 0.0 0.0 0.00 0.89 0.00 1004.7
20260506081005 13 180 0.0 0.0 0.00 0.89 0.00 1004.7
20260506080505 13 180 0.0 0.0 0.00 0.89 0.00 1005.0
20260506073505 12 180 0.0 0.0 0.00 0.89 0.00 1005.0
20260506073005 12 180 0.0 0.0 0.00 0.89 0.00 1005.1
20260506072505 12 180 0.0 0.0 0.00 0.89 0.00 1005.1
20260506072005 12 180 0.0 0.0 0.00 0.89 0.00 1005.0
20260506071505 12 180 0.0 0.0 0.00 0.89 0.00 1005.0
20260506071005 12 180 0.0 0.0 0.00 0.89 0.00 1005.1
20260506070505 12 180 0.0 0.0 0.00 0.89 0.00 1005.0
20260506062505 10 180 0.0 0.0 0.00 0.89 0.00 1004.7
20260506062005 10 180 0.0 0.0 0.00 0.89 0.00 1004.7
20260506061505 9 180 0.0 0.0 0.00 0.89 0.00 1004.7
20260506061005 9 180 0.0 0.0 0.00 0.89 0.00 1004.7
20260506060505 9 180 0.0 0.0 0.00 0.89 0.00 1005.0
20260506051005 8 180 0.0 0.0 0.00 0.89 0.00 1005.2
20260506050505 8 180 0.0 0.0 0.00 0.89 0.00 1005.2
20260506045005 8 180 0.0 0.0 0.00 0.89 0.00 1005.2
20260506044505 8 180 0.0 0.0 0.00 0.89 0.00 1005.4
20260506044005 8 180 0.0 0.0 0.00 0.89 0.00 1005.2
20260506043505 8 180 0.0 0.0 0.00 0.89 0.00 1005.4
20260506043005 8 180 0.0 0.0 0.00 0.89 0.00 1005.5
20260506042505 8 180 0.0 0.0 0.00 0.89 0.00 1005.4
20260506042005 8 180 0.0 0.0 0.00 0.89 0.00 1005.4
20260506041505 8 180 0.0 0.0 0.00 0.89 0.00 1005.4
20260506041005 8 180 0.0 0.0 0.00 0.89 0.00 1005.2
20260506040505 8 180 0.0 0.0 0.00 0.89 0.00 1005.4
20260506040005 8 180 0.0 0.0 0.00 0.89 0.00 1005.2
20260506035505 8 180 0.0 0.0 0.00 0.89 0.00 1005.2
20260506035005 8 180 0.0 0.0 0.00 0.89 0.00 1005.4
20260506034505 8 180 0.0 0.0 0.00 0.89 0.00 1005.5
20260506034005 8 180 0.0 0.0 0.00 0.89 0.00 1005.5
20260506033505 8 180 0.0 0.0 0.00 0.89 0.00 1005.5
20260506033005 8 180 0.0 0.0 0.00 0.89 0.00 1005.6
20260506032505 8 180 0.0 0.0 0.00 0.89 0.00 1005.6
20260506032005 8 180 0.0 0.0 0.00 0.89 0.00 1005.6
20260506031505 8 180 0.0 0.0 0.00 0.89 0.00 1005.7
20260506031005 8 180 0.0 0.0 0.00 0.89 0.00 1005.7
20260506030505 8 180 0.0 0.0 0.00 0.89 0.00 1005.7
20260506030005 8 180 0.0 0.0 0.00 0.89 0.00 1005.9
20260506025505 8 180 0.0 0.0 0.00 0.89 0.00 1005.7
20260506025005 8 180 0.0 0.0 0.00 0.89 0.00 1005.9
20260506024506 8 180 0.0 0.0 0.00 0.89 0.00 1006.0
20260506024005 8 180 0.0 0.0 0.00 0.89 0.00 1006.0
20260506023505 8 180 0.0 0.0 0.00 0.89 0.00 1006.0
20260506023005 8 180 0.0 0.0 0.00 0.89 0.00 1006.0
20260506022505 8 180 0.0 0.0 0.00 0.89 0.00 1006.0
20260506022005 8 180 0.0 0.0 0.00 0.89 0.00 1006.0
20260506021505 8 180 0.0 0.0 0.00 0.89 0.00 1006.0
20260506021005 8 180 0.0 0.0 0.00 0.89 0.00 1006.1
20260506020505 9 180 0.0 0.0 0.00 0.89 0.00 1006.1
20260506020005 8 180 0.0 0.0 0.00 0.89 0.00 1006.1
20260506015505 9 180 0.0 0.0 0.00 0.89 0.00 1006.2
20260506015005 9 180 0.0 0.0 0.00 0.89 0.00 1006.2
20260506014505 9 180 0.0 0.0 0.00 0.89 0.00 1006.2
20260506014005 9 180 0.0 0.0 0.00 0.89 0.00 1006.2
20260506013505 9 180 0.0 0.0 0.00 0.89 0.00 1006.6
20260506013005 9 180 0.0 0.0 0.00 0.89 0.00 1006.6
20260506012505 9 180 0.0 0.0 0.00 0.89 0.00 1006.7
20260506012005 9 180 0.0 0.0 0.00 0.89 0.00 1006.7
20260506011505 9 180 0.0 0.0 0.00 0.89 0.00 1006.7
20260506011005 9 180 0.0 0.0 0.00 0.89 0.00 1006.7
20260506010505 9 180 0.0 0.0 0.00 0.89 0.00 1006.6
20260506010005 9 180 0.0 0.0 0.00 0.89 0.00 1006.7
20260506005505 9 180 0.0 0.0 0.00 0.89 0.00 1006.6
20260506005005 9 180 0.0 0.0 0.00 0.89 0.00 1006.5
20260506004505 9 180 0.0 0.0 0.00 0.89 0.00 1006.5
20260506004005 9 180 0.0 0.0 0.00 0.89 0.00 1006.5
20260506003505 9 180 0.0 0.0 0.00 0.89 0.00 1006.5
20260506003005 9 180 0.0 0.0 0.00 0.89 0.00 1006.6
20260506002505 9 180 0.0 0.0 0.00 0.89 0.00 1006.7
20260506002005 9 180 0.0 0.0 0.00 0.89 0.00 1006.7
20260506001505 10 180 0.0 0.0 0.00 0.89 0.00 1006.7
20260506001005 9 180 0.0 0.0 0.00 0.89 0.00 1006.9
20260506000505 10 180 0.0 0.0 0.00 0.89 0.00 1007.0
20260506000005 10 180 0.0 0.0 0.00 0.89 0.00 1006.9
20260505235505 10 180 0.0 0.0 0.00 0.89 0.00 1007.0
20260505235005 10 180 0.0 0.0 0.00 0.89 0.00 1007.1
20260505234505 10 180 0.0 0.0 0.00 0.89 0.00 1007.2
20260505234005 10 180 0.0 0.0 0.00 0.89 0.00 1007.2
20260505233505 10 180 0.0 0.0 0.00 0.89 0.00 1007.2
20260505233005 10 180 0.0 0.0 0.00 0.89 0.00 1007.2
20260505232505 10 180 0.0 0.0 0.00 0.89 0.00 1007.4
20260505232005 10 180 0.0 0.0 0.00 0.89 0.00 1007.2
20260505231505 10 180 0.0 0.0 0.00 0.89 0.00 1007.2
20260505231005 10 180 0.0 0.0 0.00 0.89 0.00 1007.2
20260505230505 10 180 0.0 0.0 0.00 0.89 0.00 1007.2
20260505230005 10 180 0.0 0.0 0.00 0.89 0.00 1007.2
20260505225505 10 180 0.0 0.0 0.00 0.89 0.00 1007.2
20260505225005 10 180 0.0 0.0 0.00 0.89 0.00 1007.2
20260505224505 10 180 0.0 0.0 0.00 0.89 0.00 1007.2
20260505224005 10 180 0.0 0.0 0.00 0.89 0.00 1007.2
20260505223505 10 180 0.0 0.0 0.00 0.89 0.00 1007.2
20260505223005 10 180 0.0 0.0 0.00 0.89 0.00 1007.2
20260505222505 10 180 0.0 0.0 0.00 0.89 0.00 1007.2
20260505222005 10 180 0.0 0.0 0.00 0.89 0.00 1007.2
20260505221505 10 180 0.0 0.0 0.00 0.89 0.00 1007.2
20260505221005 10 180 0.0 0.0 0.00 0.89 0.00 1007.2
20260505220505 10 180 0.0 0.0 0.00 0.89 0.00 1007.1
20260505220005 10 180 0.0 0.0 0.00 0.89 0.00 1007.1
20260505215505 10 180 0.0 0.0 0.00 0.89 0.00 1007.2
20260505215005 10 180 0.0 0.0 0.00 0.89 0.00 1007.2
20260505214505 10 180 0.0 0.0 0.00 0.89 0.00 1007.2
20260505214005 10 180 0.0 0.0 0.00 0.89 0.00 1007.2
20260505213505 10 180 0.0 0.0 0.00 0.89 0.00 1007.2
20260505213005 10 180 0.0 0.0 0.00 0.89 0.00 1007.4
20260505212505 10 180 0.0 0.0 0.00 0.89 0.00 1007.4
20260505212005 10 180 0.0 0.0 0.00 0.89 0.00 1007.4
20260505211505 10 180 0.0 0.0 0.00 0.89 0.00 1007.5
20260505211005 10 180 0.0 0.0 0.00 0.89 0.00 1007.5
20260505210505 10 180 0.0 0.0 0.00 0.89 0.00 1007.4
20260505210005 10 180 0.0 0.0 0.00 0.89 0.00 1007.4
20260505205505 10 180 0.0 0.0 0.00 0.89 0.00 1007.2
20260505205005 10 180 0.0 0.0 0.00 0.89 0.00 1007.2
20260505204505 10 180 0.0 0.0 0.00 0.89 0.00 1007.2
20260505204005 10 180 0.0 0.0 0.00 0.89 0.00 1007.2
20260505203505 10 180 0.0 0.0 0.00 0.89 0.00 1007.2
20260505203005 10 180 0.0 0.0 0.00 0.89 0.00 1007.2
20260505202505 10 180 0.0 0.0 0.00 0.89 0.00 1007.2
20260505202005 10 180 0.0 0.0 0.00 0.89 0.00 1007.2
20260505201505 10 180 0.0 0.0 0.00 0.89 0.00 1007.1
20260505201005 10 180 0.0 0.0 0.00 0.89 0.00 1007.1
20260505200505 11 180 0.0 0.0 0.00 0.89 0.00 1007.0
20260505200005 10 180 0.0 0.0 0.00 0.89 0.00 1007.0
20260505195505 10 180 0.0 0.0 0.00 0.89 0.00 1006.9
20260505195005 11 180 0.0 0.0 0.00 0.89 0.00 1006.7
20260505194505 10 180 0.0 0.0 0.00 0.89 0.00 1006.7
20260505194005 10 180 0.0 0.0 0.00 0.89 0.00 1006.7
20260505193505 11 180 0.0 0.0 0.00 0.89 0.00 1006.7
20260505193005 11 180 0.0 0.0 0.00 0.89 0.00 1006.7
20260505192505 11 180 0.0 0.0 0.00 0.89 0.00 1006.7
20260505192005 11 180 0.0 0.0 0.00 0.89 0.00 1006.7
20260505191505 11 180 0.0 0.0 0.00 0.89 0.00 1006.7
20260505191005 11 180 0.0 0.0 0.00 0.89 0.00 1006.7
20260505190505 11 180 0.0 0.0 0.00 0.89 0.00 1006.7
20260505190005 11 180 0.0 0.0 0.00 0.89 0.00 1006.7
20260505185505 11 180 0.0 0.0 0.00 0.89 0.00 1006.6
20260505185005 11 180 0.0 0.0 0.00 0.89 0.00 1006.6
20260505184505 11 180 0.0 0.0 0.00 0.89 0.00 1006.5
20260505184005 11 180 0.0 0.0 0.00 0.89 0.00 1006.5
20260505183505 11 180 0.0 0.0 0.00 0.89 0.00 1006.2
20260505183005 11 180 0.0 0.0 0.00 0.89 0.00 1006.2
20260505182505 11 180 0.0 0.0 0.00 0.89 0.00 1006.2
20260505182005 11 180 0.0 0.0 0.00 0.89 0.00 1006.2
20260505181505 12 180 0.0 0.0 0.00 0.89 0.00 1006.2
20260505181005 12 180 0.0 0.0 0.00 0.89 0.00 1006.2
20260505180505 12 180 0.0 0.0 0.00 0.89 0.00 1006.5
20260505180005 12 180 0.0 0.0 0.00 0.89 0.00 1006.2
20260505175505 12 180 0.0 0.0 0.00 0.89 0.00 1006.2